Location: Vancouver
(49.2500°N, 123.1333°W)
Time: 10:03:56
(UTC-07:00)

Daily predictions for brighter satellites

Satellite Brightness Start Highest point End
(mag) Time Altitude Azimuth Time Altitude Azimuth Time Altitude Azimuth
EO 1 Delta rocket 4.2 20:24:02 10° NNE 20:28:39 52° E 20:33:59 10° S
USA 186 1.6 20:28:07 10° SSE 20:30:56 50° ENE 20:33:35 10° N
Cosmos 1937 Rocket 3.6 20:25:47 10° NNW 20:31:03 65° ENE 20:36:19 10° SSE
SPOT 5 4.4 20:28:04 10° ESE 20:31:22 19° ENE 20:34:36 10° NNE
Cosmos 1626 Rocket 3.6 20:28:55 10° N 20:33:21 87° E 20:37:43 10° S
Envisat 3.9 20:30:59 10° SE 20:35:25 31° ENE 20:39:50 10° N
Cosmos 2297 Rocket 3.1 20:29:59 10° NW 20:35:28 52° WSW 20:40:55 10° S
H-2A R/B 3.6 20:32:45 10° ESE 20:35:43 19° ENE 20:38:44 10° NNE
SeaSat 1 4.4 20:33:28 10° NNE 20:37:52 33° NW 20:42:15 10° WSW
Cosmos 1515 3.7 20:34:00 10° N 20:37:52 73° E 20:41:42 10° SSE
Cosmos 990 Rocket 4.2 20:33:11 10° NNW 20:38:24 57° ENE 20:43:32 10° SE
CZ-4 DEB 3.7 20:36:42 10° SE 20:39:30 30° ENE 20:42:19 10° N
Cosmos 2298 Rocket 4.3 20:34:41 10° NNW 20:40:01 76° WSW 20:45:20 10° SSE
Cosmos 1455 Rocket 3.7 20:37:54 10° SSW 20:42:12 62° WNW 20:46:34 10° N
Cosmos 1602 Rocket 3.8 20:39:36 10° NNW 20:44:05 75° W 20:48:29 10° S
ALOS 2.6 20:40:38 10° S 20:45:18 73° WSW 20:50:00 10° NNW
Helios 1B rocket 3.6 20:43:43 10° N 20:47:43 48° WNW 20:51:40 10° SW
Cosmos 2227 4.4 20:42:45 10° NNW 20:48:30 63° ENE 20:54:10 10° SE
Cosmos 1605 Rocket 4.1 20:43:33 10° S 20:49:52 84° W 20:56:08 10° N
Tiangong 1 3.3 20:49:18 10° WSW 20:51:15 16° SSW 20:53:12 10° SSE
ERS-1 Rocket 3.2 20:49:44 10° SE 20:54:37 54° ENE 20:59:32 10° N
YAOGAN 11 4.3 20:50:28 10° SSE 20:54:51 56° ENE 20:59:11 10° N
Cosmos 2100 Rocket 4.1 20:55:30 10° S 21:01:36 57° E 21:07:39 10° NNE
Cosmos 1743 3.1 20:58:21 10° SSE 21:02:03 42° E 21:05:46 10° NNE
Cosmos 1939 Rocket 3.2 20:59:13 10° SE 21:03:11 49° ENE 21:07:13 10° N
Cosmos 1763 Rocket 3.8 21:02:16 10° S 21:06:58 39° ESE 21:11:40 10° NE
H-2A R/B 3.9 21:06:16 10° E 21:08:35 13° NE 21:10:55 10° NNE
Cosmos 1697 Rocket 2.6 21:07:11 10° SSW 21:12:50 81° ESE 21:18:30 10° NNE
Cosmos 2061 Rocket 4.0 21:12:08 10° S 21:18:22 68° E 21:24:33 10° NNE
Cosmos 1606 Rocket 3.7 21:16:45 10° S 21:21:01 52° E 21:25:23 10° NNE
Cosmos 1125 Rocket 3.7 21:15:54 10° NNW 21:21:03 56° ENE 21:24:35 20° SE
Cosmos 2058 Rocket 3.8 21:18:12 15° SSE 21:21:21 35° E 21:25:28 10° NNE
ARGOS 4.1 21:20:36 19° ESE 21:23:37 32° ENE 21:28:20 10° N
Cosmos 1459 Rocket 3.9 21:18:35 10° S 21:24:38 78° E 21:30:48 10° NNE
RESURS DK-1 4.0 21:21:47 10° NW 21:25:28 31° WSW 21:29:08 10° S
SL-16 R/B 3.0 21:23:21 13° SSE 21:27:18 28° ESE 21:32:01 10° NE
SPOT 1/Viking Rocket 4.4 21:24:49 20° ESE 21:27:39 35° ENE 21:32:21 10° N
Cosmos 468 Rocket 4.2 21:22:59 10° SSW 21:28:06 74° WNW 21:33:16 10° NNE
ASTEX 1 3.8 21:23:27 10° NNE 21:28:13 42° E 21:31:24 19° SSE
USA 215 3.8 21:24:23 12° E 21:30:17 53° NNE 21:36:35 10° WNW
MetOp-B 4.4 21:27:52 20° SE 21:31:24 52° ENE 21:36:36 10° N
Cosmos 2098 Rocket 4.0 21:25:53 10° SSE 21:32:05 49° E 21:37:06 10° NNE
Cosmos 841 Rocket 3.5 21:27:11 10° S 21:32:17 57° ESE 21:37:24 10° NNE
Cosmos 1725 Rocket 4.3 21:27:36 12° SSE 21:33:03 46° E 21:39:00 10° NNE
Cosmos 1842 3.2 21:32:36 10° N 21:36:32 70° E 21:38:36 26° SSE
Cosmos 540 Rocket 4.4 21:35:33 25° ESE 21:36:34 26° E 21:40:48 10° NE
PSLV R/B 4.0 21:36:28 32° E 21:36:47 33° ENE 21:39:36 10° N
Cosmos 1980 Rocket 2.1 21:31:40 10° SSW 21:37:20 79° ESE 21:43:05 10° NNE
Cosmos 2360 Rocket 4.1 21:40:15 12° ENE 21:40:15 12° ENE 21:41:24 10° ENE
ATLAS CENTAUR R/B 4.5 21:38:13 10° NW 21:40:45 14° NNW 21:43:15 10° NNE
Cosmos 1707 4.5 21:38:24 10° NNE 21:41:07 18° ENE 21:41:19 18° ENE
YAOGAN 6 2.9 21:39:58 34° SE 21:41:12 49° ENE 21:44:50 10° N
Cosmos 1666 2.7 21:39:39 26° SSE 21:41:32 54° E 21:45:16 10° NNE
Cosmos 1814 Rocket 4.4 21:36:55 10° SSW 21:42:13 68° WNW 21:47:31 10° NNE
BREEZE-M TANK 4.1 21:33:43 10° WNW 21:43:06 34° SW 21:45:18 20° SSE
Cosmos 1726 Rocket 3.4 21:38:50 10° S 21:43:12 74° E 21:47:38 10° NNE
BREEZE-M DEB (TANK) 4.2 21:41:14 10° W 21:44:55 58° SSW 21:50:58 23° SE
Cosmos 372 Rocket 4.0 21:46:16 10° NNW 21:51:23 62° ENE 21:53:39 32° SE
Cosmos 1340 4.0 21:50:39 10° NNW 21:54:11 37° W 21:57:21 12° SSW
Cosmos 2233 Rocket 4.4 21:51:25 27° SE 21:54:12 42° E 22:00:02 10° NNE
Cosmos 1238 4.0 21:52:22 10° N 21:55:30 72° E 21:55:43 68° ESE
Cosmos 332 Rocket 4.3 21:55:07 34° SE 21:56:11 39° ESE 22:00:45 10° NE
Lacrosse 5 4.2 21:53:29 10° W 21:56:29 16° WSW 21:59:30 10° SSW
Cosmos 2263 Rocket 2.3 21:52:00 10° NNW 21:57:33 63° ENE 21:59:58 33° SE
Cosmos 371 Rocket 4.3 21:58:59 28° E 21:58:59 28° E 22:02:29 10° NE
CZ-4 SHROUD 3.3 21:59:04 56° ENE 21:59:04 56° ENE 22:02:00 10° N
SWAS 4.3 22:02:06 10° SSW 22:06:25 80° ESE 22:10:47 10° NNE
SL-08 R/B 4.5 22:00:25 10° S 22:06:39 87° W 22:12:50 10° N
Landsat 7 4.5 22:05:46 35° E 22:06:46 39° ENE 22:11:12 10° N
SPOT 5 3.0 22:06:18 26° S 22:09:01 70° WSW 22:13:43 10° NNW
SL-19 R/B 4.3 22:04:29 10° NNE 22:09:47 49° E 22:11:16 39° SE
Cosmos 2228 2.8 22:09:30 41° S 22:10:57 77° E 22:15:15 10° NNE
H-2A R/B 2.6 22:09:18 26° SSW 22:11:24 51° W 22:15:31 10° NNW
Cosmos 2322 Rocket 2.1 22:06:42 10° SSW 22:12:13 62° ESE 22:17:47 10° NE
Envisat 4.0 22:10:04 13° SSW 22:14:18 42° W 22:19:09 10° NNW
Cosmos 2016 Rocket 4.4 22:10:09 10° SSW 22:16:14 64° WNW 22:22:28 10° N
Genesis I 3.1 22:12:57 10° NW 22:16:56 72° NE 22:17:17 66° E
MetOp-A 4.4 22:14:48 27° S 22:17:48 67° WSW 22:23:10 10° NNW
CZ-4B R/B 3.7 22:13:25 10° NNE 22:17:59 43° E 22:18:00 43° E
Terra 2.4 22:21:30 37° E 22:22:02 39° ENE 22:26:28 10° N
Nimbus 7 Rocket 4.5 22:16:23 10° NNE 22:22:30 83° WNW 22:28:34 10° SSW
Meteor 2-5 Rocket 3.8 22:19:49 10° N 22:25:45 70° ENE 22:27:33 45° SE
Cosmos 405 Rocket 2.6 22:22:25 10° NNW 22:26:10 75° W 22:26:21 73° SW
Meteor 2-9 Rocket 4.3 22:21:04 12° SSW 22:26:13 71° WNW 22:31:36 10° N
Meteor 1-15 Rocket 4.5 22:27:04 14° SSW 22:32:14 73° WNW 22:38:05 10° N
Meteor 1-24 Rocket 4.2 22:26:26 10° N 22:32:19 50° ENE 22:33:34 43° ESE
BREEZE-M DEB (TANK) 3.1 22:23:12 10° WSW 22:32:38 55° S 22:33:02 53° SSE
Cosmos 1375 Rocket 4.4 22:27:21 10° SSW 22:33:56 79° SE 22:40:33 10° NE
CZ-4 R/B 4.1 22:30:14 10° NNE 22:34:31 49° E 22:34:31 49° E
deb Chang Zheng 4 4.5 22:33:59 10° N 22:38:17 49° WNW 22:41:36 16° SW
Cosmos 921 Rocket 4.4 22:39:05 10° N 22:42:38 26° NE 22:42:38 26° NE
Cosmos 1464 Rocket 4.3 22:42:49 45° ESE 22:43:32 47° E 22:49:34 10° NNE
GP-B 3.3 22:39:38 10° N 22:43:37 57° ENE 22:43:37 57° ENE
Cosmos 2346 Rocket 4.5 22:39:49 10° N 22:46:04 81° W 22:48:11 44° S
COSMOS 2428 4.5 22:48:39 17° ENE 22:48:39 17° ENE 22:50:31 10° NE
Okean 3 Rocket 3.7 22:42:04 10° N 22:46:11 61° NE 22:46:11 61° NE
H-2A R/B 1.8 22:46:46 70° SE 22:47:14 77° ENE 22:52:10 10° NNW
SL-08 RB Rocket 3.9 22:48:29 57° SW 22:49:09 65° WSW 22:53:45 10° NNW
Cosmos 2278 Rocket 3.6 22:47:01 10° NNW 22:51:46 26° NE 22:53:15 23° ENE
Cosmos 1538 Rocket 4.5 22:53:12 47° ENE 22:53:12 47° ENE 22:57:36 10° NNE
Spot 4 4.0 22:58:19 59° ENE 22:58:19 59° ENE 23:02:51 10° N
Cosmos 1076 Rocket 4.5 22:57:30 10° N 23:00:35 37° NE 23:00:35 37° NE
Lacrosse 4 Rocket 3.9 23:05:42 14° NE 23:05:42 14° NE 23:06:27 10° NE
ARGOS 3.9 23:02:07 36° SW 23:03:42 46° W 23:08:54 10° NNW
CZ-4C R/B 3.7 23:04:08 72° NW 23:04:08 72° NW 23:08:10 10° NNW
Cosmos 1844 Rocket 2.9 23:03:01 10° NNW 23:08:31 54° NE 23:08:54 53° ENE
CARTOSAT-1 3.8 23:10:09 65° NW 23:10:09 65° NW 23:13:58 10° NNW
SL-16 R/B 2.7 23:05:29 10° SW 23:11:04 57° NW 23:16:41 10° NNE
USA 215 3.1 23:11:45 60° SE 23:13:06 83° SSW 23:19:41 10° WNW
Cosmos 1707 4.0 23:13:35 10° NNW 23:16:35 39° WNW 23:16:35 39° WNW
Cosmos 540 Rocket 4.2 23:15:18 26° WSW 23:17:54 49° WNW 23:22:55 10° NNE
IGS 5A 4.2 23:19:45 52° NW 23:19:45 52° NW 23:23:02 10° NNW
Cosmos 1844 4.0 23:13:28 10° NNW 23:19:02 51° NE 23:19:20 51° ENE
Cosmos 2360 Rocket 2.1 23:21:58 77° ENE 23:21:58 77° ENE 23:27:23 10° NNE
ATLAS CENTAUR R/B 4.4 23:19:31 10° NNW 23:21:48 13° N 23:24:00 10° NE
Cosmos 1980 Rocket 4.4 23:17:25 10° W 23:22:01 25° NW 23:26:40 10° NNE
Cosmos 1891 Rocket 4.4 23:22:27 69° ESE 23:22:50 70° E 23:29:16 10° NNE
Meteor 1-22 Rocket 4.1 23:29:38 81° ENE 23:29:38 81° ENE 23:35:03 10° NNE
In-Cosmos 22 4.2 23:24:42 10° N 23:29:57 69° NE 23:29:57 69° NE
Cosmos 1766 Rocket 4.4 23:26:35 10° N 23:29:55 49° N 23:29:55 49° N
Cosmos 371 Rocket 4.4 23:37:35 36° W 23:38:37 41° WNW 23:43:13 10° NNE
Cosmos 2219 Rocket 3.9 23:42:48 21° ENE 23:42:48 21° ENE 23:45:05 10° NE
Cosmos 2263 Rocket 3.7 23:36:40 10° NW 23:41:02 24° WSW 23:41:40 23° WSW
